Location: Nitra
(0.0000°N, 18.0833°E)
Time: 10:54:59
(UTC+02:00)

A-11 Canister half - Pass Details

Date: 03 April 2023
Orbit: 1513 x 1686 km, 47.2° (Epoch: 02 June)

Event Time Altitude Azimuth Distance (km) Brightness Sun altitude
Exits shadow 02:43:02 15° 60° (ENE) 3,500 11.1 -61.6°
Drops below altitude 10° 02:46:36 10° 81° (E) 3,914 11.4 -60.7°
Sets 02:51:24 0° 100° (E) 4,878 12.1 -59.5°
